Weather History for KCLM - August, 2014

Change the Weather History Date:

Tuesday, August 5, 2014

  Actual Average Record
Temperature  
Mean Temperature 62 °F -  
Max Temperature 71 °F 68 °F 84 °F (1993)
Min Temperature 55 °F 52 °F 45 °F (1951)
Degree Days  
Heating Degree Days 3    
Growing Degree Days 12 (Base 50)    
Moisture  
Dew Point 54 °F    
Average Humidity 83    
Maximum Humidity 93    
Minimum Humidity 63    
Precipitation  
Precipitation 0.00 in - - ()
Sea Level Pressure  
Sea Level Pressure 30.05 in    
Wind  
Wind Speed 13 mph (WNW)    
Max Wind Speed 16 mph    
Max Gust Speed 24 mph    
Visibility 10 miles    
Events      
Averages and records for this station are not official NWS values.
T = Trace of Precipitation, MM = Missing Value Source: NWS Daily Summary

Daily Weather History Graph

Daily Weather History Graph

Search for Another Location

Airport or City:

Trip Planner

Search our weather history database for the weather conditions in past years. The results will help you decide how hot, cold, wet, or windy it might be!

Date:

Astronomy

Aug. 05, 2014 Rise Set
Actual Time 5:55 AM PDT 8:43 PM PDT
Civil Twilight 5:19 AM PDT 9:19 PM PDT
Nautical Twilight 4:33 AM PDT 10:05 PM PDT
Astronomical Twilight 3:38 AM PDT 10:59 PM PDT
Moon 4:06 PM PDT (8/5) 12:47 AM PDT (8/5)
Length of Visible Light 16h 00m
Length of Day
14h 48m
Waxing Gibbous, 69% of the Moon is Illuminated
Aug 5
Waxing Gibbous
Aug 10
Full
Aug 17
Last Quarter
Aug 25
New
Sep 2
First Quarter

Hourly Weather History & Observations

Time (PDT) Temp. Dew Point Humidity Pressure Visibility Wind Dir Wind Speed Gust Speed Precip Events Conditions
12:09 AM 55.9 °F 53.1 °F 90% 29.98 in 10.0 mi WNW 15.0 mph 20.7 mph N/A   Mostly Cloudy
12:37 AM 55.0 °F 53.1 °F 93% 29.97 in 10.0 mi WNW 12.7 mph - N/A   Scattered Clouds
12:53 AM 55.0 °F 53.1 °F 93% 29.98 in 10.0 mi WNW 15.0 mph 24.2 mph N/A   Partly Cloudy
1:23 AM 55.0 °F 53.1 °F 93% 29.98 in 10.0 mi WNW 15.0 mph - N/A   Mostly Cloudy
1:36 AM 55.0 °F 53.1 °F 93% 29.98 in 10.0 mi WNW 16.1 mph - N/A   Scattered Clouds
1:53 AM 55.0 °F 53.1 °F 93% 29.98 in 10.0 mi WNW 13.8 mph - N/A   Partly Cloudy
2:16 AM 55.0 °F 53.1 °F 93% 29.99 in 10.0 mi WNW 13.8 mph - N/A   Mostly Cloudy
2:53 AM 55.9 °F 53.1 °F 90% 30.01 in 10.0 mi WNW 12.7 mph - N/A   Overcast
3:53 AM 55.9 °F 53.1 °F 90% 30.01 in 10.0 mi West 9.2 mph - N/A   Overcast
4:40 AM 55.0 °F 53.1 °F 93% 30.02 in 10.0 mi WNW 10.4 mph - N/A   Overcast
4:53 AM 55.0 °F 53.1 °F 93% 30.02 in 10.0 mi WNW 10.4 mph - N/A   Overcast
5:53 AM 55.0 °F 53.1 °F 93% 30.04 in 10.0 mi WNW 10.4 mph - N/A   Overcast
6:53 AM 55.0 °F 53.1 °F 93% 30.05 in 8.0 mi WNW 6.9 mph - N/A   Overcast
7:53 AM 55.9 °F 53.1 °F 90% 30.07 in 10.0 mi West 6.9 mph - N/A   Overcast
8:53 AM 57.9 °F 54.0 °F 87% 30.08 in 10.0 mi North - - N/A   Overcast
9:29 AM 60.1 °F 53.1 °F 78% 30.08 in 10.0 mi North - - N/A   Overcast
9:53 AM 60.1 °F 53.1 °F 78% 30.09 in 10.0 mi North - - N/A   Mostly Cloudy
10:09 AM 62.1 °F 54.0 °F 75% 30.08 in 10.0 mi North - - N/A   Mostly Cloudy
10:27 AM 62.1 °F 53.1 °F 72% 30.08 in 10.0 mi North - - N/A   Scattered Clouds
10:53 AM 63.0 °F 54.0 °F 72% 30.08 in 10.0 mi North - - N/A   Clear
11:53 AM 63.0 °F 54.0 °F 72% 30.09 in 10.0 mi North - - N/A   Clear
12:53 PM 64.9 °F 55.9 °F 73% 30.09 in 10.0 mi North - - N/A   Clear
1:53 PM 68.0 °F 55.9 °F 65% 30.08 in 10.0 mi NNW 10.4 mph - N/A   Clear
2:53 PM 68.0 °F 55.9 °F 65% 30.07 in 10.0 mi NW 8.1 mph - N/A   Clear
3:53 PM 69.1 °F 55.9 °F 63% 30.06 in 10.0 mi NW 12.7 mph 18.4 mph N/A   Clear
4:53 PM 64.9 °F 55.9 °F 73% 30.06 in 10.0 mi NW 10.4 mph 21.9 mph N/A   Clear
5:53 PM 66.0 °F 55.9 °F 70% 30.05 in 10.0 mi NW 12.7 mph - N/A   Clear
6:53 PM 64.0 °F 55.0 °F 73% 30.05 in 10.0 mi NW 11.5 mph - N/A   Clear
7:53 PM 61.0 °F 55.0 °F 81% 30.06 in 10.0 mi WNW 10.4 mph - N/A   Clear
8:53 PM 59.0 °F 55.4 °F 88% 30.07 in 10.0 mi WNW 8.1 mph - N/A   Clear
9:53 PM 57.9 °F 55.0 °F 90% 30.08 in 10.0 mi WNW 13.8 mph - N/A   Clear
10:53 PM 57.0 °F 54.0 °F 89% 30.08 in 10.0 mi WNW 13.8 mph - N/A   Clear
11:53 PM 57.0 °F 54.0 °F 89% 30.08 in 10.0 mi WNW 11.5 mph - N/A   Clear